Tracking 25620 objects as of 18-May-2022
HD Live streaming from Space Station
objects crossing your sky now

SPACEBEE-53

Track SPACEBEE-53 now!
10-day predictions


NORAD ID: 47434
Int'l Code: 2021-006X
Perigee: 512.1 km
Apogee: 518.5 km
Inclination: 97.5 °
Period: 94.8 minutes
Semi major axis: 6886 km
RCS: Unknown
Launch date: January 24, 2021
Source: United States (US)
Launch site: AIR FORCE EASTERN TEST RANGE (AFETR)
aabbcc
Your satellite tracking list
Your tracking list is empty




NASA's NSSDC Master Catalog

Two Line Element Set (TLE):
1 47434U 21006X   22138.11201915  .00036638  00000-0  17351-2 0  9992
2 47434  97.4508 198.3822 0004672  53.3215 306.8448 15.19225017 72687
Source of the keplerian elements: AFSPC